TimeEST,TemperatureF,Dew PointF,Humidity,Sea Level PressureIn,VisibilityMPH,Wind Direction,Wind SpeedMPH,Gust SpeedMPH,PrecipitationIn,Events,Conditions,WindDirDegrees,DateUTC
12:11 AM,53.1,52.0,96,29.84,0.5,ESE,8.1,-,N/A,Fog,Fog,120,2013-11-18 05:11:00
12:30 AM,54.0,53.1,97,29.82,0.2,ESE,8.1,-,N/A,Fog,Fog,120,2013-11-18 05:30:00
12:53 AM,54.0,53.1,97,29.79,0.2,SE,9.2,-,N/A,Fog,Fog,130,2013-11-18 05:53:00
1:53 AM,54.0,54.0,100,29.76,0.2,SE,8.1,-,N/A,Fog,Fog,140,2013-11-18 06:53:00
2:28 AM,54.0,54.0,100,29.74,0.5,SE,6.9,-,N/A,Fog,Fog,130,2013-11-18 07:28:00
2:38 AM,54.0,54.0,100,29.74,0.2,SE,6.9,-,N/A,Fog,Fog,140,2013-11-18 07:38:00
2:53 AM,55.0,54.0,96,29.72,0.2,SE,5.8,-,N/A,Fog,Fog,140,2013-11-18 07:53:00
3:39 AM,57.0,55.9,96,29.69,0.8,SSE,8.1,-,N/A,,Mist,160,2013-11-18 08:39:00
3:47 AM,57.2,57.2,100,29.69,2.0,South,9.2,-,N/A,,Overcast,180,2013-11-18 08:47:00
3:48 AM,57.9,57.0,97,29.68,2.0,South,9.2,-,N/A,,Overcast,180,2013-11-18 08:48:00
3:56 AM,59.0,57.9,96,29.67,5.0,South,8.1,-,N/A,,Overcast,180,2013-11-18 08:56:00
4:41 AM,60.1,59.0,96,29.63,10.0,South,12.7,-,N/A,,Overcast,180,2013-11-18 09:41:00
4:53 AM,60.1,59.0,96,29.61,10.0,South,16.1,-,N/A,,Overcast,180,2013-11-18 09:53:00
5:16 AM,60.1,59.0,96,29.59,10.0,South,13.8,25.3,N/A,,Overcast,170,2013-11-18 10:16:00
5:31 AM,60.1,59.0,96,29.59,10.0,South,15.0,21.9,N/A,,Overcast,170,2013-11-18 10:31:00
5:49 AM,60.8,59.0,94,29.57,9.0,South,11.5,20.7,0.00,Rain,Light Rain,170,2013-11-18 10:49:00
5:53 AM,60.1,59.0,96,29.55,6.0,South,13.8,19.6,0.01,Rain,Light Rain,170,2013-11-18 10:53:00
6:36 AM,60.1,59.0,96,29.54,4.0,South,12.7,21.9,0.09,Rain,Light Rain,170,2013-11-18 11:36:00
6:53 AM,60.1,59.0,96,29.53,5.0,South,9.2,-,0.13,Rain,Light Rain,170,2013-11-18 11:53:00
7:28 AM,63.0,61.0,93,29.54,10.0,SW,13.8,20.7,0.03,,Overcast,220,2013-11-18 12:28:00
7:53 AM,63.0,59.0,87,29.52,10.0,SW,16.1,24.2,0.04,Rain,Light Rain,230,2013-11-18 12:53:00
8:53 AM,63.0,55.0,75,29.52,10.0,SW,13.8,24.2,0.00,,Overcast,230,2013-11-18 13:53:00
9:53 AM,62.1,45.0,53,29.52,10.0,WSW,18.4,28.8,0.00,,Mostly Cloudy,250,2013-11-18 14:53:00
10:53 AM,63.0,46.0,54,29.53,10.0,WSW,19.6,24.2,N/A,,Mostly Cloudy,240,2013-11-18 15:53:00
11:53 AM,64.9,44.1,47,29.52,10.0,WNW,16.1,20.7,N/A,,Clear,290,2013-11-18 16:53:00
12:53 PM,66.0,42.1,42,29.51,10.0,West,11.5,-,N/A,,Clear,260,2013-11-18 17:53:00
1:53 PM,64.9,39.9,40,29.52,10.0,SW,16.1,-,N/A,,Clear,220,2013-11-18 18:53:00
2:53 PM,64.9,39.9,40,29.53,10.0,WSW,8.1,-,N/A,,Clear,250,2013-11-18 19:53:00
3:53 PM,62.1,39.9,44,29.52,10.0,SW,6.9,-,N/A,,Clear,220,2013-11-18 20:53:00
4:53 PM,57.9,37.9,47,29.54,10.0,SSW,6.9,-,N/A,,Clear,210,2013-11-18 21:53:00
5:53 PM,55.9,37.0,49,29.56,10.0,SW,4.6,-,N/A,,Clear,230,2013-11-18 22:53:00
6:53 PM,55.0,36.0,49,29.56,10.0,SSW,8.1,-,N/A,,Clear,210,2013-11-18 23:53:00
7:53 PM,52.0,35.1,53,29.56,10.0,WSW,8.1,-,N/A,,Clear,240,2013-11-19 00:53:00
8:53 PM,52.0,34.0,50,29.57,10.0,West,5.8,-,N/A,,Clear,280,2013-11-19 01:53:00
9:53 PM,52.0,35.1,53,29.60,10.0,WNW,10.4,-,N/A,,Clear,300,2013-11-19 02:53:00
10:53 PM,50.0,32.0,50,29.62,10.0,West,10.4,-,N/A,,Clear,270,2013-11-19 03:53:00
11:53 PM,48.0,28.9,48,29.62,10.0,West,13.8,-,N/A,,Clear,280,2013-11-19 04:53:00